Theta_e
350 348 348 349 348 351 351 360 358 353 355 353 351 351 351 351 351 351 351 357 355 357 358 360 360 359 360 361 362 362 361 361 360 360 360 358 357 358 357 357 356 355 355
346 345 346 348 349 351 352 353 353 351 356 353 349 351 353 352 355 355 353 354 357 356 358 359 359 360 360 361 364 365 363 362 362 360 359 359 358 359 358 357 357 356 355
349 351 349 350 350 353 358 348 353 360 359 353 349 351 353 354 353 355 355 352 354 357 358 358 358 361 360 361 363 365 364 364 364 363 362 361 360 359 358 358 358 356 356
353 354 350 348 351 352 354 353 353 358 358 356 350 350 352 352 354 355 355 354 353 352 357 359 359 362 360 361 363 365 365 364 363 363 363 362 362 360 359 360 359 357 357
356 354 350 350 353 367 356 351 350 356 355 355 352 351 351 352 352 352 353 355 356 355 353 357 359 360 358 361 364 363 363 364 362 362 363 363 363 362 361 360 360 358 357
357 357 354 356 359 355 357 354 355 356 354 352 346 351 352 351 351 353 353 353 355 356 356 356 358 356 359 361 364 365 364 363 364 363 363 363 363 362 361 361 361 360 358
359 361 359 358 363 356 357 356 357 355 351 358 349 345 348 350 351 352 353 352 352 354 354 354 356 355 355 360 361 364 366 364 364 363 363 362 363 361 361 360 359 360 359
358 360 362 362 361 353 357 357 357 354 355 354 344 344 335 343 348 350 351 352 352 352 353 355 356 357 358 357 360 361 363 364 365 365 363 363 363 362 361 360 359 359 360
360 361 362 364 357 354 349 354 356 353 355 358 354 346 342 339 342 347 346 347 350 350 352 352 353 354 357 357 358 361 363 360 363 366 365 364 364 363 362 361 360 359 359
362 361 363 359 357 350 347 343 355 360 356 350 356 349 353 347 336 340 347 347 351 347 350 352 352 352 356 356 358 359 362 359 361 364 365 366 365 364 363 363 361 359 359
363 361 363 362 354 355 355 355 355 356 365 359 353 350 342 343 344 341 335 341 349 349 350 350 350 350 352 353 355 356 356 358 359 361 363 364 366 366 364 363 363 361 360
365 364 363 362 355 354 357 360 360 359 360 358 356 345 344 343 340 341 342 338 338 347 349 349 349 350 351 352 356 356 360 357 356 357 358 360 363 366 365 363 361 362 361
356 360 364 362 356 357 357 357 358 359 359 360 357 351 353 350 352 358 351 348 346 343 344 349 349 350 350 352 354 356 358 354 353 351 352 355 358 360 363 364 364 362 362
359 361 363 363 360 359 359 358 354 354 357 357 357 357 352 352 354 359 351 349 347 342 345 348 351 351 352 353 357 361 353 351 349 348 348 349 351 354 357 359 360 361 362
361 361 363 360 361 361 360 360 355 356 357 357 357 358 357 362 363 358 355 358 349 339 340 347 349 352 354 357 359 356 355 351 349 347 345 346 347 349 352 353 355 356 356
359 355 351 355 357 359 360 361 356 357 355 351 348 351 352 346 346 347 348 349 352 349 342 347 347 353 354 353 355 357 356 354 348 346 344 343 344 346 348 349 350 350 351
358 346 344 342 345 354 358 358 357 355 353 351 351 349 349 351 343 340 340 347 347 348 342 348 357 350 352 357 358 359 357 358 356 345 344 342 341 342 344 346 346 346 347
352 355 346 339 337 342 356 354 352 347 348 346 344 343 342 339 344 346 342 348 348 349 344 339 348 352 353 362 358 358 355 353 354 347 342 341 340 339 339 339 340 340 341
345 347 344 335 334 336 351 353 349 345 342 339 339 338 337 338 338 338 341 340 339 339 344 344 343 346 349 358 360 358 356 355 355 351 341 340 339 338 337 335 335 334 333
344 343 344 346 346 350 348 345 344 343 342 340 340 341 341 340 340 339 336 340 341 341 341 339 340 339 341 349 356 353 355 352 351 352 350 346 347 340 337 334 334 333 329
343 343 345 346 345 343 340 346 346 344 342 342 343 342 341 340 336 337 335 338 342 338 335 334 333 335 334 335 341 347 353 356 355 354 350 352 353 354 353 338 344 338 332
343 344 346 343 344 342 330 330 332 339 340 340 338 340 340 339 338 335 335 336 337 338 341 336 334 332 341 339 338 337 340 348 346 354 352 348 352 349 353 356 346 340 333
337 338 339 340 341 341 327 326 325 331 334 335 336 336 335 335 336 335 333 333 334 334 335 340 337 339 341 344 345 344 346 342 344 351 352 345 351 348 350 351 338 336 333
330 329 330 330 331 332 324 322 321 325 327 330 331 332 332 331 332 332 333 332 335 338 339 340 343 342 345 346 348 345 346 348 349 349 359 346 350 348 352 353 337 335 332
322 322 322 323 323 324 319 318 320 321 321 325 327 329 330 329 326 325 330 330 331 333 333 329 330 331 331 331 334 340 334 335 335 338 347 352 347 352 349 348 353 335 332
320 319 320 321 320 321 318 316 317 317 316 315 320 324 323 324 320 319 328 327 325 330 334 336 338 336 334 340 331 341 338 332 331 332 342 346 349 354 347 347 349 353 354
Wind_Speed
6 6 5 4 7 6 7 5 7 5 7 8 9 8 9 9 9 5 5 12 10 11 12 13 13 12 12 13 14 14 13 13 13 13 13 11 10 10 8 8 6 5 5
8 8 7 7 7 6 2 6 4 5 6 9 8 9 9 9 8 8 6 6 13 13 13 13 14 15 14 15 14 15 14 13 12 13 12 12 12 11 10 10 8 7 7
8 9 8 6 6 4 2 3 8 6 7 10 7 8 8 10 9 9 8 7 9 17 17 16 16 16 16 17 16 15 14 14 13 13 11 11 12 12 12 11 9 7 8
8 8 7 7 5 6 3 6 2 6 6 6 7 8 8 10 9 9 9 8 7 8 16 18 16 15 16 17 17 16 15 15 14 14 13 12 13 13 13 11 11 10 8
8 8 6 6 6 4 3 5 3 7 6 4 6 10 8 7 8 10 10 9 10 9 8 19 18 16 16 17 17 17 17 16 16 14 14 13 14 14 14 14 12 10 9
8 8 7 6 6 6 5 7 6 7 6 6 7 7 7 9 8 7 9 10 9 10 10 10 11 12 19 18 17 18 18 18 17 16 16 15 14 16 14 13 12 12 11
9 8 7 8 6 6 6 7 6 7 7 3 2 4 9 9 10 9 8 8 9 10 10 9 8 8 10 19 18 17 17 18 18 18 17 15 14 15 14 14 14 13 11
10 10 8 7 7 6 7 8 6 4 6 6 4 2 9 4 9 9 9 8 9 9 9 10 11 11 9 8 11 20 18 18 17 18 18 17 14 15 15 15 13 13 13
11 10 9 6 4 6 5 4 7 9 6 5 10 3 1 4 5 6 4 4 7 7 8 9 11 12 12 11 10 11 16 16 17 17 18 17 16 16 16 16 15 15 14
9 9 9 5 6 3 5 6 7 8 7 5 4 7 5 1 0 6 3 4 5 8 8 7 8 10 11 11 14 13 10 15 16 17 18 19 18 18 18 17 16 16 15
7 7 7 7 6 7 7 7 9 8 5 5 5 3 2 1 3 5 10 5 5 6 9 7 9 8 10 9 10 12 16 14 14 16 17 18 19 19 20 18 16 16 15
4 6 6 5 6 6 6 6 8 9 6 6 1 4 4 3 3 5 8 5 9 7 6 9 8 8 8 10 10 10 10 15 15 15 15 16 19 20 20 19 19 18 17
3 4 7 7 7 6 5 5 6 7 6 7 7 7 6 8 6 5 5 7 10 6 7 6 7 8 9 9 10 9 12 12 13 14 15 16 17 18 19 19 19 18 18
2 4 5 5 7 6 6 4 6 7 7 6 8 7 6 8 6 6 5 6 8 10 8 8 6 7 7 7 7 1 11 13 13 14 15 15 15 15 16 18 18 19 18
4 5 2 4 4 5 5 3 4 5 4 6 6 5 7 6 6 5 6 6 7 10 10 7 4 3 3 5 2 7 11 12 15 14 14 15 15 16 16 17 17 18 18
6 5 4 6 3 3 4 5 4 6 4 6 6 3 6 7 6 6 7 6 7 8 9 7 11 7 6 8 4 6 10 8 12 12 13 14 16 17 18 18 18 18 18
6 6 7 5 5 7 7 5 5 4 5 5 7 8 7 7 8 9 7 4 7 8 8 10 10 9 9 11 10 9 8 9 9 16 15 15 15 16 18 18 19 19 19
5 3 1 5 9 10 11 8 7 6 6 7 8 8 9 7 9 9 9 9 9 6 5 10 11 9 10 11 10 8 8 9 9 11 18 16 15 15 16 15 16 17 18
4 2 6 4 1 16 14 8 8 7 7 6 8 8 9 9 9 10 11 12 12 10 9 8 10 9 8 8 11 10 9 9 10 9 14 15 15 15 16 16 17 17 17
7 3 1 10 9 14 10 9 7 7 8 8 9 9 10 10 10 11 11 13 13 12 12 11 10 12 9 9 7 9 10 10 9 11 12 11 13 16 16 17 17 17 18
4 3 4 3 5 7 6 7 8 8 10 11 12 11 12 10 8 10 11 12 14 14 12 12 12 11 10 10 9 7 8 9 11 9 10 11 10 12 13 15 16 20 18
6 6 2 1 5 7 9 8 7 9 11 13 13 14 13 13 15 16 18 18 16 15 16 14 13 13 9 9 11 11 8 9 10 10 10 12 11 12 10 13 20 16 20
5 5 4 4 5 8 7 6 8 11 13 13 14 14 15 14 13 16 16 14 17 21 21 17 18 15 15 11 11 10 11 12 11 11 11 10 8 13 13 12 17 21 17
6 5 5 6 7 8 2 5 10 13 13 15 15 16 16 16 16 15 16 17 17 16 16 14 17 18 17 14 13 11 12 12 10 11 12 9 12 11 8 9 11 14 16
7 6 6 8 8 9 6 8 10 12 13 14 13 13 14 16 16 13 16 17 18 17 13 16 18 18 16 10 8 11 13 10 12 11 9 11 12 10 12 8 11 18 18
7 8 9 9 10 11 8 4 7 10 13 11 13 12 9 13 12 8 11 13 14 16 16 18 16 17 17 17 16 16 14 14 14 12 11 7 10 8 8 9 8 6 9
Wind_Direction
243 251 257 273 277 287 262 242 280 279 220 250 236 234 241 247 257 247 245 165 215 217 227 230 224 229 230 235 234 238 237 237 241 242 240 245 244 244 246 255 257 246 249
231 262 256 245 259 255 192 270 234 241 257 256 224 245 238 240 233 264 246 206 204 222 224 230 229 232 240 240 241 238 241 240 238 244 240 237 239 244 238 242 240 237 246
244 262 258 258 240 235 272 290 261 265 247 242 246 222 239 241 247 233 247 248 197 210 224 233 237 239 243 243 239 232 238 241 237 239 237 234 235 234 239 235 234 238 244
251 249 244 241 212 220 266 268 340 264 287 294 269 230 217 248 226 243 241 247 230 257 199 220 225 230 234 242 237 231 232 236 234 228 235 233 233 229 236 232 228 231 234
236 242 242 232 229 249 166 223 235 260 248 253 256 272 245 241 233 240 229 236 242 245 259 180 210 222 232 239 235 232 231 231 231 228 225 231 230 225 225 227 225 223 231
232 222 229 230 232 234 219 234 234 277 224 239 238 286 294 271 239 247 255 229 219 227 240 256 195 213 220 234 238 233 235 232 229 227 221 219 231 218 224 225 223 221 223
227 229 247 221 221 245 252 254 246 257 264 222 225 259 248 246 247 249 247 251 250 235 240 234 242 248 208 211 223 233 236 238 229 222 221 218 224 217 218 224 223 223 221
230 235 233 255 234 247 240 247 243 242 245 219 194 208 258 278 214 234 238 241 255 265 244 237 246 246 253 248 214 214 231 237 236 224 217 215 215 213 216 220 222 222 221
229 234 247 249 230 229 256 271 269 230 250 225 217 270 271 260 339 156 209 253 257 243 242 244 251 250 241 246 248 211 207 225 235 226 217 211 208 210 217 219 220 220 219
227 228 230 215 226 222 232 244 267 254 226 229 218 215 271 184 357 313 175 216 292 273 233 237 235 232 236 240 235 253 183 206 223 228 220 212 209 206 211 217 220 220 219
213 223 220 204 218 224 236 257 259 245 241 233 218 164 221 223 243 254 282 256 194 238 271 239 255 242 238 244 246 231 203 201 215 226 226 214 211 209 214 215 218 224 227
203 193 200 205 209 236 228 229 231 234 226 236 129 203 205 188 200 213 245 267 267 279 241 266 251 254 249 248 242 273 197 194 205 221 226 224 214 212 213 214 216 222 229
206 203 194 192 203 220 260 266 244 237 227 243 218 236 215 231 258 256 286 284 295 273 267 256 267 260 257 251 264 228 196 194 205 217 223 222 221 214 214 216 213 216 224
236 164 187 202 203 219 229 238 236 242 221 220 239 251 270 245 215 245 255 268 278 279 265 242 253 275 260 260 316 339 250 197 213 217 223 224 221 215 212 215 217 214 216
191 194 184 179 233 194 208 209 242 242 278 249 249 227 250 290 277 269 248 259 258 276 281 273 219 225 267 242 259 272 246 217 208 215 218 222 222 221 213 212 215 217 212
165 153 93 39 61 267 214 221 186 170 257 279 274 293 292 287 291 261 278 278 247 255 272 285 290 297 274 285 236 264 278 300 199 212 223 224 221 221 218 218 215 218 217
193 161 167 23 24 326 273 245 272 286 255 289 289 275 279 293 288 296 287 268 275 275 263 282 288 264 250 257 271 274 252 262 253 203 214 224 226 222 223 217 222 220 217
50 330 226 8 18 324 271 250 252 294 263 273 282 289 286 290 297 279 269 249 236 228 250 263 271 290 304 287 261 264 271 258 269 202 205 214 224 226 224 223 221 225 223
250 101 167 132 53 267 256 247 261 265 259 267 278 279 284 293 291 297 299 295 287 272 241 251 278 270 263 278 288 251 235 252 254 258 194 209 218 220 225 223 222 219 223
159 173 160 142 203 231 248 250 241 251 258 266 268 275 280 284 285 288 287 286 274 269 268 260 263 274 262 262 263 278 270 227 242 242 244 242 194 213 221 222 225 224 220
65 117 173 118 215 233 246 244 239 252 272 272 273 272 270 295 312 277 281 284 290 280 267 265 266 258 261 255 236 261 272 289 276 269 252 253 232 209 217 223 233 222 220
36 32 10 240 245 256 71 39 343 294 282 273 273 276 279 275 264 241 238 245 260 271 271 277 278 273 275 272 275 270 260 265 274 263 231 248 255 252 235 218 198 218 210
48 28 355 323 300 294 63 2 320 286 282 280 277 276 277 280 291 292 282 247 238 235 240 259 265 270 279 277 280 281 267 258 260 261 271 250 248 247 242 245 183 192 204
5 348 330 314 301 289 359 305 298 282 278 278 278 278 280 286 284 285 285 282 280 276 262 245 243 251 251 258 266 264 265 277 274 275 273 261 255 257 258 245 172 187 201
342 331 321 308 302 297 315 303 307 305 293 289 283 283 291 288 287 296 288 281 281 279 274 243 256 261 254 264 273 279 272 247 251 260 245 245 255 275 260 242 242 190 196
334 326 327 315 307 301 300 273 301 296 295 291 290 284 284 279 308 350 300 297 295 285 287 284 268 238 242 246 228 237 249 250 252 251 241 234 245 243 253 248 264 265 214